Time,TemperatureF,DewpointF,PressureIn,WindDirection,WindDirectionDegrees,WindSpeedMPH,WindSpeedGustMPH,Humidity,HourlyPrecipIn,Conditions,Clouds,dailyrainin,SoftwareType,DateUTC
2013-03-15 00:00:00,26.6,13.4,30.10,NW,326,4.0,4.0,57,0.00,,,0.00,Wunderground v.1.15,2013-03-15 04:00:00,
2013-03-15 00:05:00,26.6,13.4,30.10,North,354,3.0,7.0,57,0.00,,,0.00,Wunderground v.1.15,2013-03-15 04:05:00,
2013-03-15 00:10:00,26.5,13.3,30.10,NNW,335,2.0,7.0,57,0.00,,,0.00,Wunderground v.1.15,2013-03-15 04:10:00,
2013-03-15 00:15:00,26.5,13.7,30.10,NE,35,3.0,7.0,58,0.00,,,0.00,Wunderground v.1.15,2013-03-15 04:15:00,
2013-03-15 00:20:00,26.5,13.7,30.11,NW,312,2.0,7.0,58,0.00,,,0.00,Wunderground v.1.15,2013-03-15 04:20:00,
2013-03-15 00:25:00,26.5,13.7,30.11,NNW,328,2.0,7.0,58,0.00,,,0.00,Wunderground v.1.15,2013-03-15 04:25:00,
2013-03-15 00:30:00,26.5,13.7,30.11,West,263,4.0,4.0,58,0.00,,,0.00,Wunderground v.1.15,2013-03-15 04:30:00,
2013-03-15 00:35:00,26.6,14.2,30.11,North,350,4.0,7.0,59,0.00,,,0.00,Wunderground v.1.15,2013-03-15 04:35:00,
2013-03-15 00:40:00,26.6,14.6,30.11,WNW,298,3.0,7.0,60,0.00,,,0.00,Wunderground v.1.15,2013-03-15 04:40:00,
2013-03-15 00:45:00,26.5,14.1,30.10,NNW,328,3.0,7.0,59,0.00,,,0.00,Wunderground v.1.15,2013-03-15 04:45:00,
2013-03-15 00:50:00,26.5,14.1,30.10,North,1,3.0,7.0,59,0.00,,,0.00,Wunderground v.1.15,2013-03-15 04:50:00,
2013-03-15 00:55:00,26.5,14.1,30.10,WNW,288,4.0,7.0,59,0.00,,,0.00,Wunderground v.1.15,2013-03-15 04:55:00,
2013-03-15 01:00:00,26.4,14.4,30.10,WNW,292,4.0,9.0,60,0.00,,,0.00,Wunderground v.1.15,2013-03-15 05:00:00,
2013-03-15 01:05:00,26.3,14.3,30.10,NNW,339,3.0,9.0,60,0.00,,,0.00,Wunderground v.1.15,2013-03-15 05:05:00,
2013-03-15 01:10:00,26.2,14.2,30.10,NW,326,3.0,3.0,60,0.00,,,0.00,Wunderground v.1.15,2013-03-15 05:10:00,
2013-03-15 01:15:00,26.1,14.5,30.10,West,278,3.0,7.0,61,0.00,,,0.00,Wunderground v.1.15,2013-03-15 05:15:00,
2013-03-15 01:20:00,26.1,14.5,30.10,WNW,295,3.0,7.0,61,0.00,,,0.00,Wunderground v.1.15,2013-03-15 05:20:00,
2013-03-15 01:25:00,26.0,14.4,30.10,NNE,30,3.0,7.0,61,0.00,,,0.00,Wunderground v.1.15,2013-03-15 05:25:00,
2013-03-15 01:35:00,25.9,14.7,30.11,North,7,3.0,7.0,62,0.00,,,0.00,Wunderground v.1.15,2013-03-15 05:35:00,
2013-03-15 01:40:00,25.9,14.7,30.11,NNW,329,3.0,7.0,62,0.00,,,0.00,Wunderground v.1.15,2013-03-15 05:40:00,
2013-03-15 01:45:00,25.8,14.9,30.11,NNW,345,3.0,7.0,63,0.00,,,0.00,Wunderground v.1.15,2013-03-15 05:45:00,
2013-03-15 01:50:00,25.8,14.9,30.11,NNE,20,3.0,7.0,63,0.00,,,0.00,Wunderground v.1.15,2013-03-15 05:50:00,
2013-03-15 01:55:00,25.9,15.0,30.11,NNW,338,3.0,7.0,63,0.00,,,0.00,Wunderground v.1.15,2013-03-15 05:55:00,
2013-03-15 02:00:00,25.9,15.0,30.11,NNW,328,3.0,3.0,63,0.00,,,0.00,Wunderground v.1.15,2013-03-15 06:00:00,
2013-03-15 02:05:00,25.9,15.0,30.11,NW,319,2.0,7.0,63,0.00,,,0.00,Wunderground v.1.15,2013-03-15 06:05:00,
2013-03-15 02:10:00,25.9,15.4,30.11,WNW,285,2.0,7.0,64,0.00,,,0.00,Wunderground v.1.15,2013-03-15 06:10:00,
2013-03-15 02:15:00,25.9,15.0,30.11,West,271,3.0,7.0,63,0.00,,,0.00,Wunderground v.1.15,2013-03-15 06:15:00,
2013-03-15 02:20:00,25.9,15.4,30.10,West,262,3.0,7.0,64,0.00,,,0.00,Wunderground v.1.15,2013-03-15 06:20:00,
2013-03-15 02:25:00,25.8,15.3,30.10,NW,309,3.0,7.0,64,0.00,,,0.00,Wunderground v.1.15,2013-03-15 06:25:00,
2013-03-15 02:30:00,25.8,15.3,30.10,NW,326,4.0,4.0,64,0.00,,,0.00,Wunderground v.1.15,2013-03-15 06:30:00,
2013-03-15 02:35:00,25.7,15.2,30.10,WNW,290,4.0,7.0,64,0.00,,,0.00,Wunderground v.1.15,2013-03-15 06:35:00,
2013-03-15 02:40:00,25.7,15.6,30.10,WNW,290,3.0,3.0,65,0.00,,,0.00,Wunderground v.1.15,2013-03-15 06:40:00,
2013-03-15 02:45:00,25.6,15.5,30.10,West,279,2.0,7.0,65,0.00,,,0.00,Wunderground v.1.15,2013-03-15 06:45:00,
2013-03-15 02:50:00,25.5,15.4,30.10,WNW,295,3.0,7.0,65,0.00,,,0.00,Wunderground v.1.15,2013-03-15 06:50:00,
2013-03-15 02:55:00,25.5,15.4,30.09,West,259,4.0,7.0,65,0.00,,,0.00,Wunderground v.1.15,2013-03-15 06:55:00,
2013-03-15 03:00:00,25.5,15.0,30.09,West,269,3.0,3.0,64,0.00,,,0.00,Wunderground v.1.15,2013-03-15 07:00:00,
2013-03-15 03:05:00,25.4,14.9,30.09,West,262,3.0,7.0,64,0.00,,,0.00,Wunderground v.1.15,2013-03-15 07:05:00,
2013-03-15 03:10:00,25.4,14.9,30.08,West,275,3.0,3.0,64,0.00,,,0.00,Wunderground v.1.15,2013-03-15 07:10:00,
2013-03-15 03:15:00,25.3,14.8,30.08,WNW,286,3.0,7.0,64,0.00,,,0.00,Wunderground v.1.15,2013-03-15 07:15:00,
2013-03-15 03:20:00,25.3,14.8,30.08,West,269,2.0,7.0,64,0.00,,,0.00,Wunderground v.1.15,2013-03-15 07:20:00,
2013-03-15 03:25:00,25.1,15.0,30.08,West,264,2.0,7.0,65,0.00,,,0.00,Wunderground v.1.15,2013-03-15 07:25:00,
2013-03-15 03:30:00,25.1,14.6,30.07,WNW,283,2.0,7.0,64,0.00,,,0.00,Wunderground v.1.15,2013-03-15 07:30:00,
2013-03-15 03:35:00,25.0,14.9,30.07,West,269,2.0,7.0,65,0.00,,,0.00,Wunderground v.1.15,2013-03-15 07:35:00,
2013-03-15 03:40:00,24.9,14.8,30.07,NW,305,2.0,7.0,65,0.00,,,0.00,Wunderground v.1.15,2013-03-15 07:40:00,
2013-03-15 03:45:00,24.8,14.7,30.07,West,278,3.0,7.0,65,0.00,,,0.00,Wunderground v.1.15,2013-03-15 07:45:00,
2013-03-15 03:50:00,24.8,14.7,30.06,West,272,3.0,7.0,65,0.00,,,0.00,Wunderground v.1.15,2013-03-15 07:50:00,
2013-03-15 03:55:00,24.7,14.9,30.06,West,281,3.0,7.0,66,0.00,,,0.00,Wunderground v.1.15,2013-03-15 07:55:00,
2013-03-15 04:00:00,24.6,14.9,30.06,WSW,253,3.0,3.0,66,0.00,,,0.00,Wunderground v.1.15,2013-03-15 08:00:00,
2013-03-15 04:10:00,24.4,15.0,30.06,WSW,250,3.0,3.0,67,0.00,,,0.00,Wunderground v.1.15,2013-03-15 08:10:00,
2013-03-15 04:15:00,24.2,14.8,30.06,WSW,256,2.0,7.0,67,0.00,,,0.00,Wunderground v.1.15,2013-03-15 08:15:00,
2013-03-15 04:20:00,24.2,14.8,30.06,WSW,254,2.0,7.0,67,0.00,,,0.00,Wunderground v.1.15,2013-03-15 08:20:00,
2013-03-15 04:25:00,23.9,14.9,30.05,WSW,253,2.0,7.0,68,0.00,,,0.00,Wunderground v.1.15,2013-03-15 08:25:00,
2013-03-15 04:30:00,23.8,15.1,30.05,WSW,255,2.0,2.0,69,0.00,,,0.00,Wunderground v.1.15,2013-03-15 08:30:00,
2013-03-15 04:35:00,23.8,14.8,30.05,WSW,238,1.0,7.0,68,0.00,,,0.00,Wunderground v.1.15,2013-03-15 08:35:00,
2013-03-15 04:40:00,23.7,15.0,30.05,WSW,250,1.0,7.0,69,0.00,,,0.00,Wunderground v.1.15,2013-03-15 08:40:00,
2013-03-15 04:45:00,23.5,14.8,30.05,East,83,0.0,7.0,69,0.00,,,0.00,Wunderground v.1.15,2013-03-15 08:45:00,
2013-03-15 04:50:00,23.3,14.6,30.04,West,269,0.0,7.0,69,0.00,,,0.00,Wunderground v.1.15,2013-03-15 08:50:00,
2013-03-15 04:55:00,22.7,14.7,30.05,SW,215,1.0,7.0,71,0.00,,,0.00,Wunderground v.1.15,2013-03-15 08:55:00,
2013-03-15 05:00:00,22.1,14.8,30.05,SSW,207,1.0,1.0,73,0.00,,,0.00,Wunderground v.1.15,2013-03-15 09:00:00,
2013-03-15 05:05:00,21.7,14.7,30.04,SW,222,1.0,2.0,74,0.00,,,0.00,Wunderground v.1.15,2013-03-15 09:05:00,
2013-03-15 05:10:00,21.7,14.7,30.04,SSW,210,1.0,1.0,74,0.00,,,0.00,Wunderground v.1.15,2013-03-15 09:10:00,
2013-03-15 05:15:00,21.5,14.8,30.04,SSW,198,0.0,7.0,75,0.00,,,0.00,Wunderground v.1.15,2013-03-15 09:15:00,
2013-03-15 05:20:00,21.3,14.9,30.03,SSW,210,0.0,7.0,76,0.00,,,0.00,Wunderground v.1.15,2013-03-15 09:20:00,
2013-03-15 05:25:00,21.2,14.8,30.03,SW,228,0.0,7.0,76,0.00,,,0.00,Wunderground v.1.15,2013-03-15 09:25:00,
2013-03-15 05:30:00,21.1,14.7,30.03,SSW,204,1.0,7.0,76,0.00,,,0.00,Wunderground v.1.15,2013-03-15 09:30:00,
2013-03-15 05:35:00,21.0,14.9,30.03,SW,222,1.0,7.0,77,0.00,,,0.00,Wunderground v.1.15,2013-03-15 09:35:00,
2013-03-15 05:40:00,21.0,14.6,30.03,SSE,165,1.0,1.0,76,0.00,,,0.00,Wunderground v.1.15,2013-03-15 09:40:00,
2013-03-15 05:45:00,21.1,14.7,30.02,South,172,1.0,7.0,76,0.00,,,0.00,Wunderground v.1.15,2013-03-15 09:45:00,
2013-03-15 05:50:00,21.1,15.0,30.02,SE,137,0.0,7.0,77,0.00,,,0.00,Wunderground v.1.15,2013-03-15 09:50:00,
2013-03-15 05:55:00,21.2,14.8,30.02,SE,143,0.0,7.0,76,0.00,,,0.00,Wunderground v.1.15,2013-03-15 09:55:00,
2013-03-15 06:00:00,21.3,14.9,30.02,South,172,0.0,7.0,76,0.00,,,0.00,Wunderground v.1.15,2013-03-15 10:00:00,
2013-03-15 06:05:00,21.3,14.9,30.02,SSW,207,0.0,7.0,76,0.00,,,0.00,Wunderground v.1.15,2013-03-15 10:05:00,
2013-03-15 06:10:00,21.3,14.9,30.01,SW,217,0.0,7.0,76,0.00,,,0.00,Wunderground v.1.15,2013-03-15 10:10:00,
2013-03-15 06:15:00,21.5,15.1,30.01,SSW,205,1.0,7.0,76,0.00,,,0.00,Wunderground v.1.15,2013-03-15 10:15:00,
2013-03-15 06:20:00,21.5,15.1,30.01,SSW,200,1.0,7.0,76,0.00,,,0.00,Wunderground v.1.15,2013-03-15 10:20:00,
2013-03-15 06:25:00,21.5,15.1,30.01,SSW,210,1.0,7.0,76,0.00,,,0.00,Wunderground v.1.15,2013-03-15 10:25:00,
2013-03-15 06:30:00,21.4,15.0,30.00,South,181,1.0,1.0,76,0.00,,,0.00,Wunderground v.1.15,2013-03-15 10:30:00,
2013-03-15 06:35:00,21.4,15.0,30.00,South,170,1.0,2.0,76,0.00,,,0.00,Wunderground v.1.15,2013-03-15 10:35:00,
2013-03-15 06:40:00,21.5,15.1,30.00,South,186,1.0,7.0,76,0.00,,,0.00,Wunderground v.1.15,2013-03-15 10:40:00,
2013-03-15 06:45:00,21.4,15.3,30.00,SSE,158,1.0,7.0,77,0.00,,,0.00,Wunderground v.1.15,2013-03-15 10:45:00,
2013-03-15 06:50:00,21.4,15.3,29.99,South,188,1.0,1.0,77,0.00,,,0.00,Wunderground v.1.15,2013-03-15 10:50:00,
2013-03-15 06:55:00,21.2,15.4,29.99,SSW,208,1.0,2.0,78,0.00,,,0.00,Wunderground v.1.15,2013-03-15 10:55:00,
2013-03-15 07:00:00,21.1,15.6,29.99,SSW,212,2.0,7.0,79,0.00,,,0.00,Wunderground v.1.15,2013-03-15 11:00:00,
2013-03-15 07:05:00,21.1,15.6,29.98,SW,215,2.0,7.0,79,0.00,,,0.00,Wunderground v.1.15,2013-03-15 11:05:00,
2013-03-15 07:10:00,21.1,15.3,29.98,WSW,238,2.0,2.0,78,0.00,,,0.00,Wunderground v.1.15,2013-03-15 11:10:00,
2013-03-15 07:15:00,21.2,15.7,29.98,SW,229,1.0,7.0,79,0.00,,,0.00,Wunderground v.1.15,2013-03-15 11:15:00,
2013-03-15 07:20:00,21.2,15.7,29.98,SSW,200,0.0,7.0,79,0.00,,,0.00,Wunderground v.1.15,2013-03-15 11:20:00,
2013-03-15 07:25:00,21.3,15.5,29.97,SSW,211,1.0,7.0,78,0.00,,,0.00,Wunderground v.1.15,2013-03-15 11:25:00,
2013-03-15 07:30:00,21.3,15.5,29.97,SW,228,1.0,1.0,78,0.00,,,0.00,Wunderground v.1.15,2013-03-15 11:30:00,
2013-03-15 07:35:00,21.5,15.7,29.96,SW,235,1.0,7.0,78,0.00,,,0.00,Wunderground v.1.15,2013-03-15 11:35:00,
2013-03-15 07:40:00,21.6,15.8,29.96,WSW,240,1.0,7.0,78,0.00,,,0.00,Wunderground v.1.15,2013-03-15 11:40:00,
2013-03-15 07:45:00,21.8,16.0,29.96,SW,226,1.0,7.0,78,0.00,,,0.00,Wunderground v.1.15,2013-03-15 11:45:00,
2013-03-15 07:50:00,22.0,16.2,29.96,SW,233,1.0,1.0,78,0.00,,,0.00,Wunderground v.1.15,2013-03-15 11:50:00,
2013-03-15 07:55:00,22.3,16.5,29.95,South,179,1.0,7.0,78,0.00,,,0.00,Wunderground v.1.15,2013-03-15 11:55:00,
2013-03-15 08:00:00,22.6,16.5,29.95,SW,221,1.0,7.0,77,0.00,,,0.00,Wunderground v.1.15,2013-03-15 12:00:00,
2013-03-15 08:05:00,22.9,16.5,29.95,SW,225,1.0,7.0,76,0.00,,,0.00,Wunderground v.1.15,2013-03-15 12:05:00,
2013-03-15 08:10:00,23.3,16.9,29.94,WSW,254,1.0,7.0,76,0.00,,,0.00,Wunderground v.1.15,2013-03-15 12:10:00,
2013-03-15 08:15:00,23.6,16.8,29.94,SSW,201,1.0,7.0,75,0.00,,,0.00,Wunderground v.1.15,2013-03-15 12:15:00,
2013-03-15 08:20:00,23.7,16.9,29.94,SW,224,1.0,7.0,75,0.00,,,0.00,Wunderground v.1.15,2013-03-15 12:20:00,
2013-03-15 08:25:00,24.0,16.9,29.93,WSW,245,1.0,7.0,74,0.00,,,0.00,Wunderground v.1.15,2013-03-15 12:25:00,
2013-03-15 08:30:00,24.3,17.2,29.93,WSW,249,2.0,2.0,74,0.00,,,0.00,Wunderground v.1.15,2013-03-15 12:30:00,
2013-03-15 08:35:00,24.6,17.5,29.93,WSW,249,2.0,7.0,74,0.00,,,0.00,Wunderground v.1.15,2013-03-15 12:35:00,
2013-03-15 08:40:00,25.1,18.0,29.93,WSW,250,2.0,2.0,74,0.00,,,0.00,Wunderground v.1.15,2013-03-15 12:40:00,
2013-03-15 08:45:00,25.4,17.6,29.93,WSW,257,2.0,4.0,72,0.00,,,0.00,Wunderground v.1.15,2013-03-15 12:45:00,
2013-03-15 08:50:00,25.6,17.8,29.92,WSW,247,2.0,7.0,72,0.00,,,0.00,Wunderground v.1.15,2013-03-15 12:50:00,
2013-03-15 08:55:00,26.0,18.2,29.92,WSW,256,3.0,7.0,72,0.00,,,0.00,Wunderground v.1.15,2013-03-15 12:55:00,
2013-03-15 09:00:00,26.4,18.3,29.92,West,262,3.0,7.0,71,0.00,,,0.00,Wunderground v.1.15,2013-03-15 13:00:00,
2013-03-15 09:05:00,26.9,18.7,29.92,West,262,2.0,7.0,71,0.00,,,0.00,Wunderground v.1.15,2013-03-15 13:05:00,
2013-03-15 09:10:00,27.2,18.4,29.92,WSW,257,2.0,7.0,69,0.00,,,0.00,Wunderground v.1.15,2013-03-15 13:10:00,
2013-03-15 09:15:00,27.4,18.6,29.92,WSW,242,3.0,7.0,69,0.00,,,0.00,Wunderground v.1.15,2013-03-15 13:15:00,
2013-03-15 09:25:00,28.0,19.1,29.91,SW,219,3.0,7.0,69,0.00,,,0.00,Wunderground v.1.15,2013-03-15 13:25:00,
2013-03-15 09:30:00,28.3,19.4,29.91,SSW,201,3.0,7.0,69,0.00,,,0.00,Wunderground v.1.15,2013-03-15 13:30:00,
2013-03-15 09:35:00,28.5,19.3,29.91,SSW,201,3.0,7.0,68,0.00,,,0.00,Wunderground v.1.15,2013-03-15 13:35:00,
2013-03-15 09:40:00,28.8,19.6,29.91,SW,231,4.0,4.0,68,0.00,,,0.00,Wunderground v.1.15,2013-03-15 13:40:00,
2013-03-15 09:45:00,29.0,19.8,29.90,SSW,192,3.0,7.0,68,0.00,,,0.00,Wunderground v.1.15,2013-03-15 13:45:00,
2013-03-15 09:50:00,29.3,19.7,29.90,SW,224,4.0,7.0,67,0.00,,,0.00,Wunderground v.1.15,2013-03-15 13:50:00,
2013-03-15 09:55:00,29.5,19.9,29.90,WSW,238,4.0,7.0,67,0.00,,,0.00,Wunderground v.1.15,2013-03-15 13:55:00,
2013-03-15 10:00:00,29.8,20.2,29.89,SW,225,4.0,9.0,67,0.00,,,0.00,Wunderground v.1.15,2013-03-15 14:00:00,
2013-03-15 10:05:00,30.0,20.4,29.89,South,184,4.0,9.0,67,0.00,,,0.00,Wunderground v.1.15,2013-03-15 14:05:00,
2013-03-15 10:10:00,30.2,20.6,29.89,SSW,212,4.0,11.0,67,0.00,,,0.00,Wunderground v.1.15,2013-03-15 14:10:00,
2013-03-15 10:15:00,30.4,20.7,29.88,SSE,165,4.0,11.0,67,0.00,,,0.00,Wunderground v.1.15,2013-03-15 14:15:00,
2013-03-15 10:20:00,30.5,20.8,29.88,WSW,250,5.0,5.0,67,0.00,,,0.00,Wunderground v.1.15,2013-03-15 14:20:00,
2013-03-15 10:25:00,30.6,20.9,29.88,WSW,248,5.0,7.0,67,0.00,,,0.00,Wunderground v.1.15,2013-03-15 14:25:00,
2013-03-15 10:30:00,30.8,21.1,29.88,SSW,212,4.0,7.0,67,0.00,,,0.00,Wunderground v.1.15,2013-03-15 14:30:00,
2013-03-15 10:35:00,30.9,20.9,29.88,SW,228,3.0,7.0,66,0.00,,,0.00,Wunderground v.1.15,2013-03-15 14:35:00,
2013-03-15 10:40:00,31.0,21.0,29.88,SW,222,3.0,7.0,66,0.00,,,0.00,Wunderground v.1.15,2013-03-15 14:40:00,
2013-03-15 10:45:00,31.2,21.2,29.87,SSW,208,3.0,7.0,66,0.00,,,0.00,Wunderground v.1.15,2013-03-15 14:45:00,
2013-03-15 10:50:00,31.3,21.3,29.87,SSW,207,4.0,7.0,66,0.00,,,0.00,Wunderground v.1.15,2013-03-15 14:50:00,
2013-03-15 10:55:00,31.4,21.3,29.87,SSW,210,4.0,7.0,66,0.00,,,0.00,Wunderground v.1.15,2013-03-15 14:55:00,
2013-03-15 11:00:00,31.6,21.5,29.87,SSW,197,4.0,7.0,66,0.00,,,0.00,Wunderground v.1.15,2013-03-15 15:00:00,
2013-03-15 11:05:00,31.8,22.1,29.87,West,259,4.0,7.0,67,0.00,,,0.00,Wunderground v.1.15,2013-03-15 15:05:00,
2013-03-15 11:10:00,32.1,22.4,29.87,West,263,4.0,7.0,67,0.00,,,0.00,Wunderground v.1.15,2013-03-15 15:10:00,
2013-03-15 11:15:00,32.2,22.5,29.86,WSW,253,4.0,7.0,67,0.00,,,0.00,Wunderground v.1.15,2013-03-15 15:15:00,
2013-03-15 11:20:00,32.3,22.6,29.85,SW,226,5.0,7.0,67,0.00,,,0.00,Wunderground v.1.15,2013-03-15 15:20:00,
2013-03-15 11:30:00,32.3,23.3,29.85,SSW,204,4.0,7.0,69,0.00,,,0.00,Wunderground v.1.15,2013-03-15 15:30:00,
2013-03-15 11:35:00,32.2,23.2,29.85,SW,217,4.0,7.0,69,0.00,,,0.00,Wunderground v.1.15,2013-03-15 15:35:00,
2013-03-15 11:40:00,32.3,23.6,29.85,SW,228,3.0,7.0,70,0.00,,,0.00,Wunderground v.1.15,2013-03-15 15:40:00,
2013-03-15 11:45:00,32.3,23.9,29.85,SSW,208,3.0,7.0,71,0.00,,,0.00,Wunderground v.1.15,2013-03-15 15:45:00,
2013-03-15 11:50:00,32.4,24.0,29.85,SW,219,4.0,4.0,71,0.00,,,0.00,Wunderground v.1.15,2013-03-15 15:50:00,
2013-03-15 12:00:00,32.7,25.0,29.85,West,270,3.0,3.0,73,0.00,,,0.00,Wunderground v.1.15,2013-03-15 16:00:00,
2013-03-15 12:05:00,32.9,25.2,29.85,SSW,212,2.0,7.0,73,0.00,,,0.00,Wunderground v.1.15,2013-03-15 16:05:00,
2013-03-15 12:10:00,33.0,25.3,29.85,West,264,2.0,2.0,73,0.00,,,0.00,Wunderground v.1.15,2013-03-15 16:10:00,
2013-03-15 12:15:00,33.2,25.5,29.85,South,181,1.0,6.0,73,0.00,,,0.00,Wunderground v.1.15,2013-03-15 16:15:00,
2013-03-15 12:20:00,33.2,25.8,29.84,SW,215,2.0,7.0,74,0.00,,,0.00,Wunderground v.1.15,2013-03-15 16:20:00,
2013-03-15 12:30:00,33.2,25.8,29.84,South,169,3.0,3.0,74,0.00,,,0.00,Wunderground v.1.15,2013-03-15 16:30:00,
2013-03-15 12:35:00,33.2,26.1,29.84,SSW,204,2.0,7.0,75,0.00,,,0.00,Wunderground v.1.15,2013-03-15 16:35:00,
2013-03-15 12:40:00,33.2,26.1,29.84,WSW,256,2.0,7.0,75,0.00,,,0.00,Wunderground v.1.15,2013-03-15 16:40:00,
2013-03-15 12:45:00,33.2,26.1,29.84,SSW,205,1.0,7.0,75,0.00,,,0.00,Wunderground v.1.15,2013-03-15 16:45:00,
2013-03-15 12:50:00,33.3,26.2,29.83,SW,223,2.0,2.0,75,0.00,,,0.00,Wunderground v.1.15,2013-03-15 16:50:00,
2013-03-15 12:55:00,33.5,26.4,29.83,SW,228,2.0,7.0,75,0.00,,,0.00,Wunderground v.1.15,2013-03-15 16:55:00,
2013-03-15 13:00:00,33.5,26.4,29.83,WSW,241,2.0,2.0,75,0.00,,,0.00,Wunderground v.1.15,2013-03-15 17:00:00,
2013-03-15 13:05:00,33.6,26.8,29.83,West,262,1.0,7.0,76,0.00,,,0.00,Wunderground v.1.15,2013-03-15 17:05:00,
2013-03-15 13:10:00,33.6,26.8,29.83,SW,231,1.0,7.0,76,0.00,,,0.00,Wunderground v.1.15,2013-03-15 17:10:00,
2013-03-15 13:15:00,33.6,26.8,29.83,SW,228,2.0,7.0,76,0.00,,,0.00,Wunderground v.1.15,2013-03-15 17:15:00,
2013-03-15 13:20:00,33.6,27.2,29.83,WSW,247,3.0,3.0,77,0.00,,,0.00,Wunderground v.1.15,2013-03-15 17:20:00,
2013-03-15 13:25:00,33.6,27.2,29.82,SSW,210,3.0,4.0,77,0.00,,,0.00,Wunderground v.1.15,2013-03-15 17:25:00,
2013-03-15 13:30:00,33.6,27.5,29.83,WSW,240,3.0,7.0,78,0.00,,,0.00,Wunderground v.1.15,2013-03-15 17:30:00,
2013-03-15 13:35:00,33.6,27.5,29.82,SSW,211,3.0,7.0,78,0.00,,,0.00,Wunderground v.1.15,2013-03-15 17:35:00,
2013-03-15 13:40:00,33.6,27.5,29.82,SSW,194,3.0,7.0,78,0.00,,,0.00,Wunderground v.1.15,2013-03-15 17:40:00,
2013-03-15 13:45:00,33.5,27.7,29.82,SW,234,3.0,7.0,79,0.00,,,0.00,Wunderground v.1.15,2013-03-15 17:45:00,
2013-03-15 13:50:00,33.5,28.0,29.82,SSW,205,2.0,2.0,80,0.00,,,0.00,Wunderground v.1.15,2013-03-15 17:50:00,
2013-03-15 13:55:00,33.4,28.2,29.82,WSW,250,2.0,7.0,81,0.00,,,0.00,Wunderground v.1.15,2013-03-15 17:55:00,
2013-03-15 14:00:00,33.3,28.4,29.82,WNW,289,2.0,2.0,82,0.00,,,0.00,Wunderground v.1.15,2013-03-15 18:00:00,
2013-03-15 14:05:00,33.2,28.3,29.81,SSW,210,2.0,7.0,82,0.00,,,0.00,Wunderground v.1.15,2013-03-15 18:05:00,
2013-03-15 14:10:00,33.1,28.5,29.81,SW,236,2.0,7.0,83,0.00,,,0.00,Wunderground v.1.15,2013-03-15 18:10:00,
2013-03-15 14:15:00,33.0,28.4,29.81,SSW,203,3.0,7.0,83,0.00,,,0.00,Wunderground v.1.15,2013-03-15 18:15:00,
2013-03-15 14:20:00,33.0,28.4,29.81,SSE,157,3.0,3.0,83,0.00,,,0.00,Wunderground v.1.15,2013-03-15 18:20:00,
2013-03-15 14:25:00,33.0,28.4,29.80,SW,222,2.0,7.0,83,0.00,,,0.00,Wunderground v.1.15,2013-03-15 18:25:00,
2013-03-15 14:30:00,33.0,28.7,29.80,SSW,212,1.0,7.0,84,0.00,,,0.00,Wunderground v.1.15,2013-03-15 18:30:00,
2013-03-15 14:35:00,33.0,28.7,29.81,WSW,242,1.0,7.0,84,0.00,,,0.00,Wunderground v.1.15,2013-03-15 18:35:00,
2013-03-15 14:40:00,32.9,28.6,29.80,SW,231,1.0,7.0,84,0.00,,,0.00,Wunderground v.1.15,2013-03-15 18:40:00,
2013-03-15 14:45:00,32.9,28.9,29.80,WSW,242,1.0,7.0,85,0.00,,,0.00,Wunderground v.1.15,2013-03-15 18:45:00,
2013-03-15 14:50:00,32.8,28.8,29.81,SSW,207,1.0,7.0,85,0.00,,,0.00,Wunderground v.1.15,2013-03-15 18:50:00,
2013-03-15 14:55:00,32.8,28.8,29.80,SSE,167,1.0,7.0,85,0.00,,,0.00,Wunderground v.1.15,2013-03-15 18:55:00,
2013-03-15 15:00:00,32.8,28.8,29.80,SSW,207,1.0,7.0,85,0.00,,,0.00,Wunderground v.1.15,2013-03-15 19:00:00,
2013-03-15 15:05:00,32.8,28.8,29.80,WSW,238,1.0,7.0,85,0.00,,,0.00,Wunderground v.1.15,2013-03-15 19:05:00,
2013-03-15 15:10:00,32.9,28.9,29.80,WSW,249,1.0,7.0,85,0.00,,,0.00,Wunderground v.1.15,2013-03-15 19:10:00,
2013-03-15 15:15:00,32.9,28.9,29.80,SSW,200,1.0,7.0,85,0.00,,,0.00,Wunderground v.1.15,2013-03-15 19:15:00,
2013-03-15 15:20:00,33.0,29.0,29.80,West,275,2.0,2.0,85,0.00,,,0.00,Wunderground v.1.15,2013-03-15 19:20:00,
2013-03-15 15:25:00,33.1,28.8,29.80,WSW,243,2.0,7.0,84,0.00,,,0.00,Wunderground v.1.15,2013-03-15 19:25:00,
2013-03-15 15:30:00,33.3,29.0,29.80,WSW,249,2.0,2.0,84,0.00,,,0.00,Wunderground v.1.15,2013-03-15 19:30:00,
2013-03-15 15:35:00,33.4,28.8,29.80,WSW,243,2.0,3.0,83,0.00,,,0.00,Wunderground v.1.15,2013-03-15 19:35:00,
2013-03-15 15:40:00,33.5,28.9,29.80,West,270,2.0,2.0,83,0.00,,,0.00,Wunderground v.1.15,2013-03-15 19:40:00,
2013-03-15 15:45:00,33.6,29.0,29.80,WNW,300,2.0,7.0,83,0.00,,,0.00,Wunderground v.1.15,2013-03-15 19:45:00,
2013-03-15 15:50:00,33.7,28.8,29.80,SW,234,2.0,7.0,82,0.00,,,0.00,Wunderground v.1.15,2013-03-15 19:50:00,
2013-03-15 15:55:00,33.7,28.8,29.80,NW,311,3.0,7.0,82,0.00,,,0.00,Wunderground v.1.15,2013-03-15 19:55:00,
2013-03-15 16:00:00,33.8,28.9,29.80,WNW,291,3.0,7.0,82,0.00,,,0.00,Wunderground v.1.15,2013-03-15 20:00:00,
2013-03-15 16:05:00,34.0,29.1,29.80,NW,309,3.0,7.0,82,0.00,,,0.00,Wunderground v.1.15,2013-03-15 20:05:00,
2013-03-15 16:10:00,34.3,29.1,29.80,WSW,242,2.0,2.0,81,0.00,,,0.00,Wunderground v.1.15,2013-03-15 20:10:00,
2013-03-15 16:15:00,34.8,29.6,29.80,West,278,1.0,7.0,81,0.00,,,0.00,Wunderground v.1.15,2013-03-15 20:15:00,
2013-03-15 16:20:00,35.1,29.2,29.80,West,281,2.0,2.0,79,0.00,,,0.00,Wunderground v.1.15,2013-03-15 20:20:00,
2013-03-15 16:25:00,35.4,29.2,29.80,NNW,348,3.0,4.0,78,0.00,,,0.00,Wunderground v.1.15,2013-03-15 20:25:00,
2013-03-15 16:30:00,35.5,29.0,29.80,NNW,348,4.0,4.0,77,0.00,,,0.00,Wunderground v.1.15,2013-03-15 20:30:00,
2013-03-15 16:40:00,35.5,28.7,29.81,WNW,300,4.0,4.0,76,0.00,,,0.00,Wunderground v.1.15,2013-03-15 20:40:00,
2013-03-15 16:45:00,35.4,28.6,29.81,NNW,335,4.0,7.0,76,0.00,,,0.00,Wunderground v.1.15,2013-03-15 20:45:00,
2013-03-15 16:50:00,35.3,28.5,29.81,WSW,242,5.0,5.0,76,0.00,,,0.00,Wunderground v.1.15,2013-03-15 20:50:00,
2013-03-15 16:55:00,35.4,28.6,29.81,NE,46,4.0,7.0,76,0.00,,,0.00,Wunderground v.1.15,2013-03-15 20:55:00,
2013-03-15 17:00:00,35.4,28.6,29.81,NNW,330,3.0,3.0,76,0.00,,,0.00,Wunderground v.1.15,2013-03-15 21:00:00,
2013-03-15 17:05:00,35.6,29.1,29.81,NNW,328,2.0,7.0,77,0.00,,,0.00,Wunderground v.1.15,2013-03-15 21:05:00,
2013-03-15 17:10:00,35.7,28.6,29.81,WNW,300,2.0,8.0,75,0.00,,,0.00,Wunderground v.1.15,2013-03-15 21:10:00,
2013-03-15 17:15:00,35.8,29.0,29.81,NW,315,3.0,8.0,76,0.00,,,0.00,Wunderground v.1.15,2013-03-15 21:15:00,
2013-03-15 17:20:00,35.8,28.3,29.81,WNW,300,3.0,3.0,74,0.00,,,0.00,Wunderground v.1.15,2013-03-15 21:20:00,
2013-03-15 17:25:00,35.7,28.2,29.81,WSW,257,3.0,7.0,74,0.00,,,0.00,Wunderground v.1.15,2013-03-15 21:25:00,
2013-03-15 17:30:00,35.7,28.2,29.81,North,352,3.0,3.0,74,0.00,,,0.00,Wunderground v.1.15,2013-03-15 21:30:00,
2013-03-15 17:35:00,35.6,27.8,29.81,WSW,253,4.0,6.0,73,0.00,,,0.00,Wunderground v.1.15,2013-03-15 21:35:00,
2013-03-15 17:40:00,35.5,28.0,29.82,NNW,328,4.0,4.0,74,0.00,,,0.00,Wunderground v.1.15,2013-03-15 21:40:00,
2013-03-15 17:45:00,35.5,28.0,29.82,West,262,3.0,7.0,74,0.00,,,0.00,Wunderground v.1.15,2013-03-15 21:45:00,
2013-03-15 17:50:00,35.6,28.1,29.82,NNW,330,3.0,3.0,74,0.00,,,0.00,Wunderground v.1.15,2013-03-15 21:50:00,
2013-03-15 17:55:00,35.9,27.7,29.81,West,259,3.0,4.0,72,0.00,,,0.00,Wunderground v.1.15,2013-03-15 21:55:00,
2013-03-15 18:00:00,36.1,27.6,29.82,NNW,341,3.0,3.0,71,0.00,,,0.00,Wunderground v.1.15,2013-03-15 22:00:00,
2013-03-15 18:05:00,36.2,27.4,29.82,WNW,291,3.0,7.0,70,0.00,,,0.00,Wunderground v.1.15,2013-03-15 22:05:00,
2013-03-15 18:10:00,36.1,26.9,29.82,WNW,287,3.0,3.0,69,0.00,,,0.00,Wunderground v.1.15,2013-03-15 22:10:00,
2013-03-15 18:15:00,36.1,26.6,29.82,NW,322,4.0,4.0,68,0.00,,,0.00,Wunderground v.1.15,2013-03-15 22:15:00,
2013-03-15 18:20:00,36.0,26.5,29.82,NW,320,4.0,7.0,68,0.00,,,0.00,Wunderground v.1.15,2013-03-15 22:20:00,
2013-03-15 18:25:00,36.0,26.5,29.82,WNW,297,4.0,7.0,68,0.00,,,0.00,Wunderground v.1.15,2013-03-15 22:25:00,
2013-03-15 18:30:00,35.9,26.7,29.82,West,274,4.0,7.0,69,0.00,,,0.00,Wunderground v.1.15,2013-03-15 22:30:00,
2013-03-15 18:35:00,35.7,26.5,29.82,WSW,251,3.0,7.0,69,0.00,,,0.00,Wunderground v.1.15,2013-03-15 22:35:00,
2013-03-15 18:40:00,35.6,26.8,29.82,ESE,122,2.0,2.0,70,0.00,,,0.00,Wunderground v.1.15,2013-03-15 22:40:00,
2013-03-15 18:45:00,35.5,26.7,29.82,West,268,2.0,7.0,70,0.00,,,0.00,Wunderground v.1.15,2013-03-15 22:45:00,
2013-03-15 18:50:00,35.5,26.7,29.83,WNW,286,2.0,7.0,70,0.00,,,0.00,Wunderground v.1.15,2013-03-15 22:50:00,
2013-03-15 18:55:00,35.4,26.6,29.83,NW,311,2.0,7.0,70,0.00,,,0.00,Wunderground v.1.15,2013-03-15 22:55:00,
2013-03-15 19:00:00,35.4,26.6,29.83,WNW,288,4.0,7.0,70,0.00,,,0.00,Wunderground v.1.15,2013-03-15 23:00:00,
2013-03-15 19:05:00,35.3,26.5,29.83,WSW,255,4.0,7.0,70,0.00,,,0.00,Wunderground v.1.15,2013-03-15 23:05:00,
2013-03-15 19:10:00,35.2,26.7,29.83,West,262,3.0,7.0,71,0.00,,,0.00,Wunderground v.1.15,2013-03-15 23:10:00,
2013-03-15 19:15:00,35.2,26.4,29.84,WSW,256,3.0,7.0,70,0.00,,,0.00,Wunderground v.1.15,2013-03-15 23:15:00,
2013-03-15 19:20:00,35.1,26.6,29.84,North,352,2.0,7.0,71,0.00,,,0.00,Wunderground v.1.15,2013-03-15 23:20:00,
2013-03-15 19:25:00,34.9,26.4,29.84,SSE,155,1.0,7.0,71,0.00,,,0.00,Wunderground v.1.15,2013-03-15 23:25:00,
2013-03-15 19:30:00,34.8,26.7,29.84,West,259,1.0,7.0,72,0.00,,,0.00,Wunderground v.1.15,2013-03-15 23:30:00,
2013-03-15 19:35:00,34.9,26.4,29.84,West,274,2.0,7.0,71,0.00,,,0.00,Wunderground v.1.15,2013-03-15 23:35:00,
2013-03-15 19:40:00,34.9,26.4,29.84,WSW,250,3.0,7.0,71,0.00,,,0.00,Wunderground v.1.15,2013-03-15 23:40:00,
2013-03-15 19:45:00,34.9,26.8,29.84,NW,317,3.0,7.0,72,0.00,,,0.00,Wunderground v.1.15,2013-03-15 23:45:00,
2013-03-15 19:50:00,34.8,26.4,29.85,WNW,294,2.0,7.0,71,0.00,,,0.00,Wunderground v.1.15,2013-03-15 23:50:00,
2013-03-15 19:55:00,34.8,26.7,29.85,West,264,2.0,7.0,72,0.00,,,0.00,Wunderground v.1.15,2013-03-15 23:55:00,
2013-03-15 20:00:00,34.8,26.4,29.85,West,268,2.0,2.0,71,0.00,,,0.00,Wunderground v.1.15,2013-03-16 00:00:00,
2013-03-15 20:05:00,34.8,26.4,29.85,WNW,300,2.0,7.0,71,0.00,,,0.00,Wunderground v.1.15,2013-03-16 00:05:00,
2013-03-15 20:10:00,34.8,26.7,29.85,WNW,285,2.0,2.0,72,0.00,,,0.00,Wunderground v.1.15,2013-03-16 00:10:00,
2013-03-15 20:15:00,34.7,26.6,29.85,SSE,165,2.0,7.0,72,0.00,,,0.00,Wunderground v.1.15,2013-03-16 00:15:00,
2013-03-15 20:20:00,34.5,26.4,29.86,NNW,345,1.0,7.0,72,0.00,,,0.00,Wunderground v.1.15,2013-03-16 00:20:00,
2013-03-15 20:25:00,34.3,26.5,29.86,NW,311,1.0,7.0,73,0.00,,,0.00,Wunderground v.1.15,2013-03-16 00:25:00,
2013-03-15 20:30:00,34.3,26.5,29.86,NW,315,1.0,7.0,73,0.00,,,0.00,Wunderground v.1.15,2013-03-16 00:30:00,
2013-03-15 20:35:00,34.3,26.5,29.86,NW,317,2.0,7.0,73,0.00,,,0.00,Wunderground v.1.15,2013-03-16 00:35:00,
2013-03-15 20:40:00,34.3,26.5,29.86,WSW,249,2.0,2.0,73,0.00,,,0.00,Wunderground v.1.15,2013-03-16 00:40:00,
2013-03-15 20:45:00,34.2,26.4,29.87,NNE,30,1.0,7.0,73,0.00,,,0.00,Wunderground v.1.15,2013-03-16 00:45:00,
2013-03-15 20:50:00,34.1,26.3,29.87,West,278,1.0,7.0,73,0.00,,,0.00,Wunderground v.1.15,2013-03-16 00:50:00,
2013-03-15 20:55:00,34.1,26.3,29.87,NNE,26,2.0,7.0,73,0.00,,,0.00,Wunderground v.1.15,2013-03-16 00:55:00,
2013-03-15 21:00:00,34.0,26.3,29.87,NW,317,2.0,7.0,73,0.00,,,0.00,Wunderground v.1.15,2013-03-16 01:00:00,
2013-03-15 21:05:00,34.0,26.6,29.87,NW,311,2.0,7.0,74,0.00,,,0.00,Wunderground v.1.15,2013-03-16 01:05:00,
2013-03-15 21:10:00,33.9,26.5,29.88,West,272,2.0,2.0,74,0.00,,,0.00,Wunderground v.1.15,2013-03-16 01:10:00,
2013-03-15 21:15:00,33.7,26.3,29.88,NW,305,2.0,3.0,74,0.00,,,0.00,Wunderground v.1.15,2013-03-16 01:15:00,
2013-03-15 21:20:00,33.7,26.0,29.88,NNW,330,2.0,2.0,73,0.00,,,0.00,Wunderground v.1.15,2013-03-16 01:20:00,
2013-03-15 21:25:00,33.7,26.0,29.88,NW,309,2.0,7.0,73,0.00,,,0.00,Wunderground v.1.15,2013-03-16 01:25:00,
2013-03-15 21:30:00,33.6,25.9,29.88,WNW,296,3.0,3.0,73,0.00,,,0.00,Wunderground v.1.15,2013-03-16 01:30:00,
2013-03-15 21:35:00,33.6,25.9,29.88,NNW,339,3.0,7.0,73,0.00,,,0.00,Wunderground v.1.15,2013-03-16 01:35:00,
2013-03-15 21:40:00,33.5,25.4,29.89,NW,319,3.0,3.0,72,0.00,,,0.00,Wunderground v.1.15,2013-03-16 01:40:00,
2013-03-15 21:45:00,33.3,25.6,29.89,NNW,343,2.0,7.0,73,0.00,,,0.00,Wunderground v.1.15,2013-03-16 01:45:00,
2013-03-15 21:55:00,33.3,25.6,29.89,NNW,343,3.0,7.0,73,0.00,,,0.00,Wunderground v.1.15,2013-03-16 01:55:00,
2013-03-15 22:00:00,33.3,25.6,29.89,NNW,335,3.0,3.0,73,0.00,,,0.00,Wunderground v.1.15,2013-03-16 02:00:00,
2013-03-15 22:05:00,33.2,25.5,29.89,WNW,294,2.0,4.0,73,0.00,,,0.00,Wunderground v.1.15,2013-03-16 02:05:00,
2013-03-15 22:10:00,33.2,25.5,29.90,NW,314,2.0,2.0,73,0.00,,,0.00,Wunderground v.1.15,2013-03-16 02:10:00,
2013-03-15 22:15:00,33.1,25.1,29.90,NW,321,3.0,3.0,72,0.00,,,0.00,Wunderground v.1.15,2013-03-16 02:15:00,
2013-03-15 22:20:00,33.1,24.7,29.90,WNW,293,4.0,4.0,71,0.00,,,0.00,Wunderground v.1.15,2013-03-16 02:20:00,
2013-03-15 22:25:00,33.1,24.7,29.90,NNW,330,3.0,7.0,71,0.00,,,0.00,Wunderground v.1.15,2013-03-16 02:25:00,
2013-03-15 22:30:00,33.0,23.9,29.90,North,349,3.0,7.0,69,0.00,,,0.00,Wunderground v.1.15,2013-03-16 02:30:00,
2013-03-15 22:35:00,32.9,23.5,29.90,NNW,330,3.0,7.0,68,0.00,,,0.00,Wunderground v.1.15,2013-03-16 02:35:00,
2013-03-15 22:40:00,32.9,23.5,29.90,NW,311,4.0,7.0,68,0.00,,,0.00,Wunderground v.1.15,2013-03-16 02:40:00,
2013-03-15 22:45:00,32.8,24.1,29.91,NE,37,4.0,7.0,70,0.00,,,0.00,Wunderground v.1.15,2013-03-16 02:45:00,
2013-03-15 22:50:00,32.4,24.4,29.91,NNW,334,5.0,8.0,72,0.00,,,0.00,Wunderground v.1.15,2013-03-16 02:50:00,
2013-03-15 22:55:00,32.3,24.3,29.91,NNW,339,6.0,8.0,72,0.00,,,0.00,Wunderground v.1.15,2013-03-16 02:55:00,
2013-03-15 23:00:00,32.0,24.0,29.91,North,360,6.0,10.0,72,0.00,,,0.00,Wunderground v.1.15,2013-03-16 03:00:00,
2013-03-15 23:05:00,31.8,23.5,29.91,NNE,12,7.0,10.0,71,0.00,,,0.00,Wunderground v.1.15,2013-03-16 03:05:00,
2013-03-15 23:10:00,31.6,23.3,29.91,NNW,345,7.0,7.0,71,0.00,,,0.00,Wunderground v.1.15,2013-03-16 03:10:00,
2013-03-15 23:15:00,31.5,23.2,29.92,NNW,333,5.0,7.0,71,0.00,,,0.00,Wunderground v.1.15,2013-03-16 03:15:00,
2013-03-15 23:20:00,31.3,23.0,29.92,NNE,14,5.0,7.0,71,0.00,,,0.00,Wunderground v.1.15,2013-03-16 03:20:00,
2013-03-15 23:30:00,31.1,22.8,29.92,North,354,4.0,7.0,71,0.00,,,0.00,Wunderground v.1.15,2013-03-16 03:30:00,
2013-03-15 23:35:00,31.1,22.8,29.92,NNW,341,5.0,7.0,71,0.00,,,0.00,Wunderground v.1.15,2013-03-16 03:35:00,
2013-03-15 23:40:00,31.0,22.7,29.92,North,356,5.0,8.0,71,0.00,,,0.00,Wunderground v.1.15,2013-03-16 03:40:00,
2013-03-15 23:45:00,31.1,22.5,29.92,NNE,12,5.0,8.0,70,0.00,,,0.00,Wunderground v.1.15,2013-03-16 03:45:00,
2013-03-15 23:50:00,31.0,22.7,29.92,NNW,339,5.0,8.0,71,0.00,,,0.00,Wunderground v.1.15,2013-03-16 03:50:00,
2013-03-15 23:55:00,31.0,22.4,29.92,NNE,22,5.0,8.0,70,0.00,,,0.00,Wunderground v.1.15,2013-03-16 03:55:00,